[[{"header":{"parameterUnit":"m.s-1","parameterCategory":1,"la1":30.2991,"la2":30.254,"lo1":-89.0895,"lo2":-89.0444,"dy":0.0017,"dx":0.0017,"nx":28,"ny":28,"refTime":"2024-08-21T21:00:00:Z","depth":0,"parameterNumber":2,"parameterNumberName":"U-component_of_WINDS"},"data":[0,0,0,0,0,0,0,0,0,0,0,0,0,0,0,0,0,0,0,0,0,0,0,0,0,0,0,0,0,0,0,0,0,0,0,0,0,0,0,0,0,0,0,0,0,0,0,0,0,0,0,0,0,0,0,0,0,0,-0.871,-0.871,0,-0.8661,-0.8661,-0.866,-0.8554,-0.8552,-0.855,-0.8548,-0.8502,-0.8503,-0.8504,0,0,0,0,0,0,0,0,0,0,0,0,0,-0.8718,-0.8719,-0.871,-0.871,-0.8709,-0.8662,-0.8661,-0.866,-0.8555,-0.8552,-0.8549,-0.8547,-0.8502,-0.8503,-0.8504,0,0,0,0,0,0,0,0,0,0,0,0,0,-0.8697,-0.8719,-0.871,-0.865,-0.8645,-0.8662,-0.8661,-0.866,-0.8555,-0.8552,-0.8549,-0.8546,-0.8502,-0.8503,-0.8504,-0.8577,0,0,-0.8508,-0.8508,0,0,0,0,0,0,0,0,-0.8698,-0.8697,-0.866,-0.8655,-0.8648,-0.861,-0.8647,-0.8632,-0.8556,-0.8589,-0.8548,-0.8544,-0.8541,-0.8539,-0.8537,-0.8575,-0.8573,-0.8508,-0.8509,-0.8509,-0.851,0,0,0,0,0,0,0,-0.87,-0.8698,-0.8691,-0.866,-0.8652,-0.8628,-0.8622,-0.8644,-0.8584,-0.8586,-0.8578,-0.8574,-0.8537,-0.8536,-0.8535,-0.8572,-0.8508,-0.8509,-0.851,-0.851,-0.8671,-0.8675,0,0,0,0,0,0,-0.8709,-0.87,-0.8693,-0.869,-0.8666,-0.8631,-0.8623,-0.8626,-0.8584,-0.8574,-0.8577,-0.8569,-0.8536,-0.8534,-0.8533,-0.8618,-0.8509,-0.851,-0.8511,-0.8668,-0.8672,-0.8676,0,0,0,0,0,0,-0.871,-0.871,-0.8695,-0.8693,-0.8689,-0.8634,-0.8638,-0.8627,-0.8625,-0.8576,-0.8566,-0.8586,-0.8533,-0.8532,-0.8567,-0.8615,-0.8511,-0.8512,-0.8664,-0.8669,-0.8674,-0.8787,0,0,0,0,0,0,-0.8711,-0.871,-0.8736,-0.8694,-0.8689,-0.8728,-0.8641,-0.8628,-0.8627,-0.8617,-0.8582,-0.8574,-0.853,-0.8566,-0.8569,-0.8615,-0.8513,-0.8659,-0.8666,-0.8672,-0.8779,-0.8796,-0.881,0,0,0,0,0,-0.8711,-0.877,-0.8738,-0.8737,-0.872,-0.8731,-0.8728,-0.8676,-0.8631,-0.8658,-0.8627,-0.8575,-0.8609,-0.8571,-0.8573,-0.862,-0.8656,-0.8664,-0.8672,-0.8772,-0.8793,-0.881,0,0,0,0,0,0,-0.882,-0.8763,-0.8727,-0.8773,-0.8758,-0.8713,-0.8744,-0.8699,-0.8697,-0.8687,-0.8624,-0.8617,-0.8663,-0.8644,-0.8603,-0.869,-0.8624,-0.8633,-0.87,-0.8719,-0.8735,-0.8739,-0.8514,0,0,0,0,0,-0.8849,-0.886,-0.8811,-0.8857,-0.8851,-0.88,-0.8802,-0.8764,-0.8745,-0.8739,-0.871,-0.8696,-0.8704,-0.871,-0.8714,-0.8776,-0.8769,-0.881,-0.8825,-0.8838,-0.8847,-0.8882,-0.89,-0.8702,-0.8702,-0.8702,0,0,-0.8909,-0.888,-0.8891,-0.8878,-0.8861,-0.8878,-0.8795,-0.8814,-0.8826,-0.8742,-0.8774,-0.8754,-0.8734,-0.8784,-0.8804,-0.877,-0.89,-0.8849,-0.8859,-0.8861,-0.8892,-0.8911,-0.8927,-0.8707,-0.8706,-0.8706,0,0,-0.9028,-0.9006,-0.9043,-0.9029,-0.9004,-0.897,-0.8979,-0.8942,-0.8924,-0.8956,-0.8894,-0.8908,-0.8922,-0.8911,-0.8908,-0.9027,-0.898,-0.903,-0.9112,-0.9146,-0.9162,-0.9175,-0.922,-0.9237,-0.9039,-0.9039,-0.9039,0,-0.9107,-0.9127,-0.9069,-0.9093,-0.9091,-0.9014,-0.9054,-0.9043,-0.9022,-0.9023,-0.8985,-0.9003,-0.8984,-0.9032,-0.9061,-0.906,-0.9071,-0.9034,-0.9164,-0.9177,-0.9189,-0.9231,-0.9248,-0.9045,-0.9045,-0.9044,-0.9043,0,-0.9227,-0.9242,-0.9275,-0.9257,-0.9258,-0.929,-0.9239,-0.9247,-0.921,-0.9181,-0.9215,-0.919,-0.919,-0.9198,-0.9161,-0.9242,-0.9222,-0.9175,-0.9108,-0.9215,-0.9254,-0.9269,-0.9055,-0.9052,-0.905,-0.9049,0,0,-0.9412,-0.9362,-0.9375,-0.9367,-0.9336,-0.9348,-0.9378,-0.9376,-0.9386,-0.9375,-0.9401,-0.9416,-0.9373,-0.9369,-0.9331,-0.9361,-0.946,-0.931,-0.9309,-0.9341,-0.9551,-0.9588,-0.9608,-0.9428,-0.9431,-0.9433,-0.9554,0,-0.9525,-0.9571,-0.9521,-0.9579,-0.9594,-0.9524,-0.955,-0.9536,-0.951,-0.9521,-0.9492,-0.9505,-0.9446,-0.9444,-0.947,-0.9442,-0.9502,-0.9433,-0.9454,-0.9456,-0.9463,-0.9627,-0.9666,-0.978,-0.9568,-0.9571,-0.9572,0,-0.9662,-0.9658,-0.9718,-0.9685,-0.969,-0.9714,-0.9711,-0.9721,-0.9704,-0.9684,-0.9681,-0.9635,-0.9665,-0.9599,-0.9641,-0.9596,-0.9602,-0.959,-0.9593,-0.9594,-0.9522,-0.9635,-0.9815,-0.9834,-0.9595,-0.9593,-0.9592,0,-0.9795,-0.9804,-0.9841,-0.9836,-0.9798,-0.9818,-0.9804,-0.9784,-0.9787,-0.9785,-0.9787,-0.9788,-0.979,-0.9793,-0.975,-0.9705,-0.9799,-0.9729,-0.9785,-0.9787,-0.9809,-0.9808,-0.9995,-0.981,-0.981,-0.9809,-0.9809,0,-0.9927,-0.9967,-0.99,-0.9923,-0.9967,-0.9911,-0.9956,-0.9935,-0.9918,-0.9938,-0.9877,-0.9898,-0.9838,-0.9853,-0.982,-0.9862,-0.9862,-0.9848,-0.9839,-0.9855,-0.9857,-0.9859,-0.9851,-0.9814,-0.9813,-0.9812,-0.9811,0,-1.0083,-1.0039,-1.0075,-1.0038,-1.0029,-1.0064,-1.0032,-1.0054,-1.0024,-1.0051,-1.0054,-1.0009,-1.0024,-0.9981,-0.9989,-0.9966,-1.0028,-1.0005,-1.0034,-1.0027,-1.0087,-1.0083,-1.0283,-1.0307,-1.0105,-1.0107,-1.0109,0,-1.0171,-1.02,-1.0166,-1.0174,-1.0163,-1.0177,-1.0181,-1.0127,-1.0134,-1.0119,-1.0143,-1.0153,-1.0158,-1.0186,-1.0155,-1.0162,-1.014,-1.0209,-1.014,-1.0156,-1.0144,-1.0144,-1.0148,-1.0224,-1.0227,-1.0229,-1.023,0,-1.0333,-1.0311,-1.0317,-1.0317,-1.0323,-1.0321,-1.0314,-1.0325,-1.0268,-1.0279,-1.0293,-1.0298,-1.0306,-1.0318,-1.0319,-1.0306,-1.0261,-1.0252,-1.0266,-1.0283,-1.03,-1.0294,-1.0075,-1.0248,-1.0246,-1.0245,-1.0244,-1.0243,-1.0459,-1.0483,-1.0463,-1.0474,-1.0463,-1.0459,-1.0479,-1.0452,-1.0463,-1.0465,-1.0433,-1.0455,-1.0441,-1.0437,-1.0429,-1.0447,-1.0416,-1.0435,-1.044,-1.0447,-1.0458,-1.0296,-1.0447,-1.0446,-1.0446,-1.0445,-1.0445,0,-1.0621,-1.0605,-1.0615,-1.0608,-1.0617,-1.0572,-1.0563,-1.0575,-1.0594,-1.0584,-1.059,-1.0609,-1.062,-1.0591,-1.0599,-1.0619,-1.0599,-1.0624,-1.0623,-1.0621,-1.0484,-1.0473,-1.064,-1.064,-1.064,-1.064,-1.064,-1.064,-1.0706,-1.0744,-1.072,-1.0755,-1.0739,-1.0759,-1.0759,-1.0756,-1.0748,-1.0771,-1.078,-1.0761,-1.0744,-1.0751,-1.0761,-1.0752,-1.0759,-1.0792,-1.0776,-1.0649,-1.063,-1.0612,-1.0601,-1.0793,-1.0793,-1.0911,-1.0913,-1.0913]},{"header":{"parameterUnit":"m.s-1","parameterCategory":1,"la1":30.2991,"la2":30.254,"lo1":-89.0895,"lo2":-89.0444,"dy":0.0017,"dx":0.0017,"nx":28,"ny":28,"refTime":"2024-08-21T21:00:00:Z","depth":0,"parameterNumber":3,"parameterNumberName":"V-component_of_WINDS"},"data":[0,0,0,0,0,0,0,0,0,0,0,0,0,0,0,0,0,0,0,0,0,0,0,0,0,0,0,0,0,0,0,0,0,0,0,0,0,0,0,0,0,0,0,0,0,0,0,0,0,0,0,0,0,0,0,0,0,0,-0.9045,-0.9045,0,-0.8989,-0.8988,-0.8988,-0.8884,-0.8882,-0.888,-0.8878,-0.8821,-0.8822,-0.8822,0,0,0,0,0,0,0,0,0,0,0,0,0,-0.9063,-0.9063,-0.9045,-0.9045,-0.9044,-0.8989,-0.8988,-0.8987,-0.8884,-0.8882,-0.8879,-0.8877,-0.8821,-0.8822,-0.8822,0,0,0,0,0,0,0,0,0,0,0,0,0,-0.9036,-0.9063,-0.9046,-0.8986,-0.898,-0.8989,-0.8988,-0.8987,-0.8885,-0.8882,-0.8879,-0.8876,-0.8821,-0.8822,-0.8822,-0.8885,0,0,-0.8824,-0.8824,0,0,0,0,0,0,0,0,-0.9038,-0.9035,-0.8995,-0.899,-0.8983,-0.894,-0.8973,-0.8953,-0.8886,-0.8921,-0.8878,-0.8874,-0.8863,-0.886,-0.8856,-0.8883,-0.888,-0.8824,-0.8824,-0.8824,-0.8824,0,0,0,0,0,0,0,-0.904,-0.9037,-0.9023,-0.8995,-0.8988,-0.8962,-0.8954,-0.8969,-0.891,-0.8918,-0.891,-0.8905,-0.886,-0.8856,-0.8854,-0.8879,-0.8824,-0.8824,-0.8825,-0.8825,-0.8953,-0.8955,0,0,0,0,0,0,-0.905,-0.904,-0.9025,-0.9021,-0.9004,-0.8964,-0.8956,-0.8957,-0.8909,-0.8899,-0.8907,-0.89,-0.8857,-0.8854,-0.8852,-0.8922,-0.8824,-0.8825,-0.8825,-0.8949,-0.8953,-0.8957,0,0,0,0,0,0,-0.9051,-0.905,-0.9027,-0.9028,-0.9023,-0.8967,-0.8969,-0.8958,-0.8954,-0.8901,-0.889,-0.8915,-0.8854,-0.8851,-0.8877,-0.8918,-0.8825,-0.8826,-0.8946,-0.8951,-0.8955,-0.9063,0,0,0,0,0,0,-0.9052,-0.9051,-0.9075,-0.903,-0.9024,-0.9054,-0.8972,-0.8959,-0.8955,-0.8945,-0.8905,-0.8896,-0.8852,-0.8877,-0.8878,-0.8917,-0.8826,-0.8942,-0.8948,-0.8953,-0.9056,-0.9071,-0.9084,0,0,0,0,0,-0.9053,-0.9108,-0.9077,-0.9075,-0.9052,-0.9057,-0.9053,-0.9001,-0.8959,-0.8982,-0.8948,-0.8897,-0.8913,-0.8881,-0.8881,-0.8921,-0.8939,-0.8946,-0.8953,-0.9049,-0.9068,-0.9084,0,0,0,0,0,0,-0.9161,-0.9101,-0.9066,-0.9108,-0.9088,-0.9039,-0.9067,-0.9023,-0.9015,-0.9006,-0.8941,-0.8933,-0.8967,-0.8946,-0.8911,-0.8978,-0.8918,-0.8925,-0.8992,-0.9009,-0.9023,-0.9027,-0.8826,0,0,0,0,0,-0.9189,-0.9198,-0.9145,-0.9188,-0.9179,-0.9125,-0.9125,-0.9086,-0.9063,-0.9055,-0.9022,-0.9002,-0.9002,-0.9004,-0.9001,-0.9051,-0.9041,-0.9079,-0.9093,-0.9105,-0.9112,-0.9136,-0.9152,-0.8979,-0.8979,-0.8979,0,0,-0.9249,-0.9217,-0.9227,-0.9208,-0.9188,-0.9198,-0.9119,-0.9133,-0.914,-0.9057,-0.9079,-0.9055,-0.9028,-0.9066,-0.9081,-0.9049,-0.9157,-0.9114,-0.9124,-0.9125,-0.9145,-0.9161,-0.9176,-0.8984,-0.8983,-0.8982,0,0,-0.9362,-0.9339,-0.9371,-0.9353,-0.9323,-0.9286,-0.9294,-0.9251,-0.9232,-0.9253,-0.919,-0.9197,-0.9199,-0.9182,-0.9173,-0.9277,-0.923,-0.9278,-0.9353,-0.9376,-0.939,-0.9402,-0.9438,-0.9453,-0.9285,-0.9286,-0.9286,0,-0.944,-0.9453,-0.9394,-0.9412,-0.9405,-0.9328,-0.936,-0.9345,-0.9316,-0.9313,-0.9278,-0.9277,-0.9254,-0.9286,-0.9312,-0.9307,-0.9314,-0.9283,-0.9393,-0.9404,-0.9414,-0.9448,-0.9462,-0.9292,-0.9291,-0.929,-0.929,0,-0.955,-0.9559,-0.9589,-0.9562,-0.9558,-0.9583,-0.9528,-0.9531,-0.9491,-0.9458,-0.948,-0.9448,-0.9437,-0.9442,-0.9404,-0.9468,-0.9449,-0.9404,-0.9343,-0.9437,-0.9469,-0.9481,-0.93,-0.9298,-0.9296,-0.9295,0,0,-0.9732,-0.9671,-0.9683,-0.9669,-0.9629,-0.9635,-0.9656,-0.9644,-0.9648,-0.963,-0.9645,-0.9647,-0.9605,-0.9595,-0.9554,-0.9575,-0.9658,-0.9526,-0.9525,-0.9552,-0.9726,-0.9761,-0.9778,-0.9626,-0.9628,-0.963,-0.9729,0,-0.9838,-0.987,-0.9816,-0.986,-0.9868,-0.9794,-0.9811,-0.9789,-0.9757,-0.9759,-0.9724,-0.9726,-0.967,-0.9663,-0.968,-0.9645,-0.9693,-0.9637,-0.964,-0.964,-0.965,-0.9794,-0.9831,-0.9926,-0.9741,-0.9743,-0.9744,0,-0.9966,-0.9953,-0.9998,-0.9954,-0.9955,-0.9972,-0.9956,-0.9958,-0.993,-0.9906,-0.9894,-0.9845,-0.9861,-0.98,-0.9821,-0.9784,-0.9781,-0.9764,-0.9766,-0.9765,-0.9699,-0.9798,-0.9955,-0.997,-0.9763,-0.9761,-0.976,0,-1.0095,-1.0088,-1.0114,-1.0104,-1.0054,-1.0067,-1.0046,-1.0015,-1.0011,-0.9997,-0.9993,-0.9981,-0.9975,-0.9967,-0.9915,-0.9876,-0.9942,-0.9877,-0.9922,-0.9923,-0.9941,-0.994,-1.0101,-0.9938,-0.9938,-0.9938,-0.9937,0,-1.0219,-1.0249,-1.0171,-1.0187,-1.0218,-1.0155,-1.0188,-1.016,-1.0132,-1.0141,-1.0076,-1.0085,-1.0016,-1.0018,-0.9977,-1.0,-0.9998,-0.9978,-0.9967,-0.9984,-0.9987,-0.9983,-0.9975,-0.9941,-0.994,-0.994,-0.9939,0,-1.0369,-1.0318,-1.0341,-1.029,-1.0277,-1.0303,-1.0259,-1.0271,-1.0234,-1.0246,-1.0245,-1.0188,-1.0186,-1.0133,-1.0121,-1.0093,-1.0133,-1.0109,-1.0142,-1.0135,-1.0183,-1.0179,-1.0347,-1.0365,-1.0191,-1.0193,-1.0194,0,-1.0452,-1.0473,-1.0424,-1.0425,-1.0407,-1.0409,-1.0404,-1.0342,-1.0339,-1.0308,-1.0324,-1.0316,-1.0307,-1.0308,-1.0265,-1.0254,-1.023,-1.0289,-1.0228,-1.0244,-1.0231,-1.0231,-1.0232,-1.0303,-1.0305,-1.0307,-1.0309,0,-1.0605,-1.0577,-1.0573,-1.0559,-1.0554,-1.054,-1.0522,-1.0526,-1.0458,-1.0458,-1.0455,-1.0448,-1.0434,-1.0427,-1.0408,-1.0386,-1.0336,-1.0328,-1.0337,-1.0356,-1.0374,-1.0365,-1.0178,-1.0325,-1.0323,-1.0322,-1.0321,-1.032,-1.0723,-1.0739,-1.0706,-1.0702,-1.0681,-1.0665,-1.0674,-1.0637,-1.0634,-1.0617,-1.058,-1.0583,-1.0552,-1.0521,-1.0503,-1.0504,-1.0474,-1.0488,-1.0492,-1.0496,-1.0506,-1.0373,-1.05,-1.05,-1.0499,-1.0499,-1.0498,0,-1.0873,-1.0848,-1.0845,-1.082,-1.0817,-1.0769,-1.0746,-1.0746,-1.0749,-1.0724,-1.0716,-1.0712,-1.0704,-1.066,-1.0647,-1.0656,-1.0632,-1.0655,-1.0654,-1.0649,-1.0534,-1.0527,-1.0674,-1.0674,-1.0674,-1.0673,-1.0673,-1.0673,-1.095,-1.0973,-1.0942,-1.0953,-1.0927,-1.0929,-1.0919,-1.0904,-1.0883,-1.0881,-1.0874,-1.0845,-1.0812,-1.0796,-1.0786,-1.0773,-1.0771,-1.0802,-1.0781,-1.0674,-1.0658,-1.0641,-1.0634,-1.0802,-1.0802,-1.0896,-1.0897,-1.0898]}]]